BWA241 TBPB-TGPY

Flight info

Callsign BWA241
Flight time 0h 44m
Altitude 14000
Route D230N DCT RAKAN DCT YOLKK DCT LEXAS DCT ALRAG DCT EBGAN DCT KAPAM DCT ANEBA
Aircraft AT76/M-SDFGIRY/S

Departure

Time 2026-04-26 20:00
Airport Grantley Adams International Airport (TBPB)

Arrival

Time 2026-04-26 20:45
Airport Maurice Bishop International Airport (TGPY)
Time Latitude Longitude Altitude Speed Heading
2026-04-26 19:36 13.07861 -59.48877 173 ft 0 kts 345°
2026-04-26 19:55 13.07862 -59.48879 173 ft 1 kts 329°
2026-04-26 19:55 13.07860 -59.48884 173 ft 0 kts 246°
2026-04-26 19:55 13.07844 -59.48891 173 ft 5 kts 197°
2026-04-26 19:55 13.07790 -59.48907 173 ft 12 kts 195°
2026-04-26 19:56 13.07697 -59.48962 173 ft 18 kts 238°
2026-04-26 19:56 13.07656 -59.49089 173 ft 19 kts 256°
2026-04-26 19:56 13.07625 -59.49230 173 ft 21 kts 256°
2026-04-26 19:56 13.07590 -59.49376 173 ft 21 kts 256°
2026-04-26 19:57 13.07554 -59.49526 172 ft 22 kts 257°
2026-04-26 19:57 13.07517 -59.49677 173 ft 22 kts 255°
2026-04-26 19:57 13.07481 -59.49829 173 ft 22 kts 255°
2026-04-26 19:57 13.07445 -59.49978 173 ft 21 kts 256°
2026-04-26 19:58 13.07410 -59.50123 173 ft 21 kts 257°
2026-04-26 19:58 13.07374 -59.50267 173 ft 21 kts 255°
2026-04-26 19:58 13.07337 -59.50407 173 ft 20 kts 255°
2026-04-26 19:58 13.07304 -59.50546 173 ft 20 kts 256°
2026-04-26 19:59 13.07269 -59.50681 173 ft 19 kts 253°
2026-04-26 19:59 13.07185 -59.50715 173 ft 11 kts 165°
2026-04-26 19:59 13.07123 -59.50694 173 ft 8 kts 147°
2026-04-26 19:59 13.07110 -59.50643 173 ft 11 kts 80°
2026-04-26 20:00 13.07137 -59.50529 173 ft 27 kts 76°
2026-04-26 20:00 13.07234 -59.50139 175 ft 87 kts 76°
2026-04-26 20:00 13.07417 -59.49388 386 ft 119 kts 78°
2026-04-26 20:00 13.07648 -59.48477 812 ft 140 kts 76°
2026-04-26 20:01 13.07867 -59.47487 1288 ft 146 kts 92°
2026-04-26 20:01 13.07341 -59.46618 1810 ft 156 kts 148°
2026-04-26 20:01 13.06222 -59.46610 2305 ft 175 kts 201°
2026-04-26 20:01 13.05195 -59.47359 2698 ft 192 kts 215°
2026-04-26 20:02 13.04145 -59.48280 3015 ft 209 kts 218°
2026-04-26 20:02 13.03031 -59.49333 3351 ft 221 kts 220°
2026-04-26 20:02 13.01884 -59.50445 3654 ft 230 kts 220°
2026-04-26 20:02 13.01122 -59.51197 3867 ft 235 kts 220°
2026-04-26 20:03 12.99517 -59.52786 4296 ft 241 kts 221°
2026-04-26 20:03 12.98308 -59.53968 4610 ft 243 kts 221°
2026-04-26 20:03 12.97095 -59.55203 4919 ft 245 kts 224°
2026-04-26 20:03 12.95914 -59.56444 5209 ft 246 kts 223°
2026-04-26 20:04 12.94651 -59.57666 5451 ft 249 kts 219°
2026-04-26 20:04 12.93293 -59.58777 5706 ft 250 kts 214°
2026-04-26 20:04 12.91850 -59.59790 5943 ft 252 kts 211°
2026-04-26 20:04 12.90382 -59.60749 6187 ft 253 kts 211°
2026-04-26 20:05 12.88900 -59.61729 6432 ft 251 kts 214°
2026-04-26 20:05 12.87842 -59.63150 6664 ft 254 kts 244°
2026-04-26 20:05 12.87254 -59.64849 6892 ft 256 kts 250°
2026-04-26 20:05 12.86751 -59.66620 7129 ft 258 kts 252°
2026-04-26 20:06 12.86261 -59.68380 7362 ft 259 kts 251°
2026-04-26 20:06 12.85732 -59.70151 7605 ft 260 kts 250°
2026-04-26 20:06 12.85172 -59.71903 7842 ft 261 kts 249°
2026-04-26 20:06 12.84589 -59.73682 8082 ft 262 kts 249°
2026-04-26 20:07 12.84009 -59.75448 8322 ft 262 kts 249°
2026-04-26 20:07 12.83430 -59.77203 8564 ft 262 kts 249°
2026-04-26 20:07 12.82849 -59.78991 8773 ft 265 kts 249°
2026-04-26 20:07 12.82277 -59.80780 8941 ft 267 kts 249°
2026-04-26 20:08 12.81703 -59.82589 9131 ft 269 kts 249°
2026-04-26 20:08 12.81128 -59.84408 9360 ft 268 kts 249°
2026-04-26 20:08 12.80543 -59.86250 9586 ft 269 kts 249°
2026-04-26 20:08 12.79966 -59.88054 9816 ft 269 kts 249°
2026-04-26 20:09 12.79377 -59.89880 10025 ft 269 kts 249°
2026-04-26 20:09 12.78791 -59.91691 10227 ft 269 kts 249°
2026-04-26 20:09 12.78204 -59.93516 10442 ft 269 kts 249°
2026-04-26 20:09 12.77618 -59.95325 10645 ft 269 kts 249°
2026-04-26 20:10 12.77029 -59.97149 10857 ft 269 kts 249°
2026-04-26 20:10 12.76439 -59.98979 11069 ft 269 kts 249°
2026-04-26 20:10 12.75860 -60.00776 11280 ft 269 kts 249°
2026-04-26 20:10 12.75279 -60.02585 11496 ft 270 kts 249°
2026-04-26 20:11 12.74691 -60.04416 11711 ft 270 kts 249°
2026-04-26 20:11 12.74104 -60.06227 11930 ft 269 kts 249°
2026-04-26 20:11 12.73517 -60.08043 12143 ft 270 kts 249°
2026-04-26 20:12 12.72327 -60.11705 12593 ft 269 kts 249°
2026-04-26 20:12 12.71730 -60.13516 12788 ft 270 kts 249°
2026-04-26 20:12 12.71125 -60.15348 12882 ft 274 kts 248°
2026-04-26 20:12 12.70510 -60.17221 12928 ft 279 kts 249°
2026-04-26 20:13 12.69899 -60.19118 12951 ft 283 kts 249°
2026-04-26 20:13 12.69284 -60.21035 12959 ft 287 kts 249°
2026-04-26 20:13 12.68656 -60.22988 12965 ft 290 kts 249°
2026-04-26 20:13 12.68014 -60.24962 12972 ft 292 kts 249°
2026-04-26 20:14 12.67365 -60.26954 12968 ft 294 kts 249°
2026-04-26 20:14 12.66729 -60.28927 12968 ft 296 kts 249°
2026-04-26 20:14 12.66085 -60.30942 12966 ft 297 kts 249°
2026-04-26 20:14 12.65433 -60.32956 12967 ft 297 kts 249°
2026-04-26 20:15 12.64782 -60.34950 12965 ft 297 kts 249°
2026-04-26 20:15 12.64124 -60.36973 12967 ft 298 kts 249°
2026-04-26 20:15 12.63466 -60.38993 12967 ft 298 kts 249°
2026-04-26 20:15 12.62815 -60.40994 12968 ft 298 kts 249°
2026-04-26 20:16 12.62161 -60.43016 12965 ft 299 kts 249°
2026-04-26 20:16 12.61515 -60.45018 12968 ft 299 kts 249°
2026-04-26 20:16 12.61079 -60.46367 12963 ft 299 kts 249°
2026-04-26 20:16 12.60200 -60.49052 12965 ft 299 kts 249°
2026-04-26 20:17 12.59764 -60.50399 12965 ft 299 kts 249°
2026-04-26 20:17 12.59098 -60.52437 12963 ft 299 kts 249°
2026-04-26 20:17 12.58432 -60.54441 12966 ft 297 kts 246°
2026-04-26 20:17 12.57614 -60.56355 12969 ft 296 kts 241°
2026-04-26 20:18 12.56678 -60.58243 12971 ft 296 kts 240°
2026-04-26 20:18 12.55733 -60.60122 12972 ft 296 kts 240°
2026-04-26 20:18 12.54838 -60.61994 12969 ft 297 kts 242°
2026-04-26 20:18 12.53944 -60.63927 12970 ft 297 kts 242°
2026-04-26 20:19 12.53061 -60.65820 12966 ft 297 kts 242°
2026-04-26 20:19 12.52174 -60.67735 12967 ft 297 kts 242°
2026-04-26 20:19 12.51278 -60.69659 12965 ft 297 kts 242°
2026-04-26 20:19 12.50388 -60.71548 12964 ft 297 kts 242°
2026-04-26 20:20 12.49496 -60.73464 12967 ft 297 kts 242°
2026-04-26 20:20 12.48608 -60.75362 12965 ft 297 kts 242°
2026-04-26 20:20 12.47720 -60.77262 12964 ft 297 kts 242°
2026-04-26 20:20 12.46822 -60.79176 12965 ft 297 kts 242°
2026-04-26 20:21 12.45931 -60.81077 12964 ft 297 kts 242°
2026-04-26 20:21 12.45047 -60.82966 12964 ft 297 kts 242°
2026-04-26 20:21 12.44149 -60.84895 12962 ft 297 kts 242°
2026-04-26 20:21 12.43266 -60.86783 12963 ft 297 kts 242°
2026-04-26 20:22 12.42372 -60.88691 12962 ft 297 kts 242°
2026-04-26 20:22 12.41478 -60.90601 12967 ft 297 kts 242°
2026-04-26 20:22 12.40597 -60.92485 12963 ft 297 kts 242°
2026-04-26 20:22 12.39704 -60.94395 12966 ft 297 kts 242°
2026-04-26 20:23 12.38807 -60.96313 12964 ft 297 kts 242°
2026-04-26 20:23 12.37921 -60.98199 12968 ft 297 kts 242°
2026-04-26 20:23 12.37033 -61.00107 12965 ft 297 kts 242°
2026-04-26 20:23 12.36146 -61.02001 12964 ft 297 kts 242°
2026-04-26 20:24 12.35250 -61.03911 12964 ft 297 kts 242°
2026-04-26 20:24 12.34363 -61.05801 12963 ft 297 kts 242°
2026-04-26 20:24 12.33467 -61.07723 12962 ft 297 kts 242°
2026-04-26 20:24 12.32583 -61.09605 12964 ft 297 kts 242°
2026-04-26 20:25 12.31672 -61.11540 12963 ft 297 kts 242°
2026-04-26 20:25 12.31082 -61.12800 12965 ft 297 kts 242°
2026-04-26 20:25 12.29890 -61.15339 12965 ft 297 kts 242°
2026-04-26 20:25 12.28998 -61.17241 12963 ft 298 kts 242°
2026-04-26 20:26 12.28101 -61.19150 12961 ft 298 kts 242°
2026-04-26 20:26 12.27203 -61.21066 12962 ft 298 kts 242°
2026-04-26 20:26 12.26304 -61.22984 12965 ft 298 kts 242°
2026-04-26 20:26 12.25417 -61.24867 12962 ft 298 kts 242°
2026-04-26 20:27 12.24513 -61.26794 12964 ft 298 kts 242°
2026-04-26 20:27 12.23613 -61.28710 12961 ft 298 kts 242°
2026-04-26 20:27 12.22718 -61.30605 12958 ft 298 kts 242°
2026-04-26 20:27 12.21915 -61.32560 12955 ft 297 kts 254°
2026-04-26 20:28 12.21801 -61.34667 12766 ft 300 kts 271°
2026-04-26 20:28 12.21992 -61.36751 12515 ft 285 kts 274°
2026-04-26 20:28 12.22201 -61.38716 12253 ft 275 kts 274°
2026-04-26 20:28 12.22370 -61.40624 11953 ft 268 kts 272°
2026-04-26 20:29 12.22487 -61.42528 11659 ft 262 kts 271°
2026-04-26 20:29 12.22590 -61.44369 11370 ft 258 kts 271°
2026-04-26 20:29 12.22695 -61.46181 11089 ft 255 kts 271°
2026-04-26 20:29 12.22804 -61.47968 10804 ft 252 kts 271°
2026-04-26 20:30 12.22912 -61.49765 10525 ft 250 kts 271°
2026-04-26 20:30 12.23015 -61.51491 10250 ft 248 kts 271°
2026-04-26 20:30 12.23118 -61.53258 9972 ft 247 kts 271°
2026-04-26 20:30 12.23219 -61.55005 9684 ft 245 kts 271°
2026-04-26 20:31 12.23320 -61.56732 9380 ft 244 kts 271°
2026-04-26 20:31 12.23416 -61.58462 9057 ft 243 kts 271°
2026-04-26 20:31 12.23506 -61.60184 8683 ft 243 kts 270°
2026-04-26 20:31 12.23592 -61.61911 8310 ft 242 kts 270°
2026-04-26 20:32 12.23678 -61.63629 7946 ft 242 kts 271°
2026-04-26 20:32 12.23774 -61.65335 7585 ft 241 kts 271°
2026-04-26 20:32 12.23874 -61.67054 7225 ft 240 kts 271°
2026-04-26 20:32 12.23971 -61.68744 6873 ft 239 kts 271°
2026-04-26 20:33 12.24072 -61.70442 6526 ft 238 kts 271°
2026-04-26 20:33 12.24172 -61.72130 6171 ft 238 kts 272°
2026-04-26 20:33 12.24269 -61.73831 5793 ft 237 kts 272°
2026-04-26 20:33 12.24370 -61.75505 5427 ft 237 kts 272°
2026-04-26 20:34 12.24468 -61.77187 5061 ft 236 kts 272°
2026-04-26 20:34 12.24563 -61.78848 4697 ft 235 kts 272°
2026-04-26 20:34 12.24463 -61.80479 4336 ft 228 kts 249°
2026-04-26 20:34 12.23687 -61.81839 3985 ft 223 kts 230°
2026-04-26 20:35 12.22698 -61.83022 3751 ft 218 kts 225°
2026-04-26 20:35 12.21664 -61.84151 3541 ft 214 kts 224°
2026-04-26 20:35 12.20649 -61.85253 3318 ft 211 kts 224°
2026-04-26 20:35 12.19661 -61.86354 3106 ft 209 kts 225°
2026-04-26 20:36 12.18706 -61.87449 2879 ft 207 kts 225°
2026-04-26 20:36 12.17765 -61.88538 2667 ft 206 kts 225°
2026-04-26 20:36 12.16819 -61.89642 2482 ft 203 kts 225°
2026-04-26 20:36 12.15894 -61.90717 2340 ft 198 kts 225°
2026-04-26 20:37 12.14998 -61.91760 2208 ft 196 kts 225°
2026-04-26 20:37 12.14096 -61.92811 2062 ft 193 kts 226°
2026-04-26 20:37 12.13228 -61.93819 2003 ft 187 kts 225°
2026-04-26 20:37 12.12396 -61.94802 1975 ft 180 kts 226°
2026-04-26 20:38 12.11599 -61.95754 1953 ft 173 kts 225°
2026-04-26 20:38 12.10821 -61.96662 1953 ft 163 kts 219°
2026-04-26 20:38 12.09814 -61.97052 1945 ft 154 kts 179°
2026-04-26 20:38 12.08751 -61.97094 1949 ft 155 kts 176°
2026-04-26 20:39 12.07656 -61.97085 1953 ft 158 kts 174°
2026-04-26 20:39 12.06925 -61.97076 1952 ft 162 kts 174°
2026-04-26 20:39 12.05382 -61.97055 1950 ft 168 kts 175°
2026-04-26 20:39 12.04211 -61.97037 1944 ft 171 kts 175°
2026-04-26 20:40 12.03009 -61.97021 1943 ft 174 kts 175°
2026-04-26 20:40 12.01815 -61.96959 1946 ft 170 kts 162°
2026-04-26 20:40 12.00973 -61.96218 1943 ft 164 kts 113°
2026-04-26 20:40 12.00658 -61.95101 1947 ft 163 kts 102°
2026-04-26 20:41 12.00494 -61.93964 1953 ft 160 kts 95°
2026-04-26 20:41 12.00431 -61.92900 1943 ft 143 kts 91°
2026-04-26 20:41 12.00426 -61.91906 1939 ft 134 kts 91°
2026-04-26 20:41 12.00444 -61.90977 1938 ft 129 kts 91°
2026-04-26 20:42 12.00458 -61.90080 1925 ft 125 kts 90°
2026-04-26 20:42 12.00465 -61.89174 1761 ft 133 kts 91°
2026-04-26 20:42 12.00463 -61.88224 1575 ft 132 kts 91°
2026-04-26 20:42 12.00465 -61.87298 1394 ft 130 kts 91°
2026-04-26 20:43 12.00469 -61.86377 1187 ft 130 kts 90°
2026-04-26 20:43 12.00485 -61.85459 1034 ft 130 kts 90°
2026-04-26 20:43 12.00482 -61.84547 896 ft 127 kts 91°
2026-04-26 20:43 12.00420 -61.83652 826 ft 126 kts 93°
2026-04-26 20:44 12.00398 -61.82759 668 ft 126 kts 92°
2026-04-26 20:44 12.00441 -61.81877 522 ft 122 kts 92°
2026-04-26 20:44 12.00457 -61.81020 319 ft 122 kts 94°
2026-04-26 20:44 12.00423 -61.80151 103 ft 119 kts 92°
2026-04-26 20:45 12.00409 -61.79361 35 ft 94 kts 89°
2026-04-26 20:45 12.00411 -61.79009 41 ft 35 kts 90°
2026-04-26 20:45 12.00410 -61.78794 42 ft 26 kts 90°
2026-04-26 20:45 12.00410 -61.78644 42 ft 16 kts 88°
2026-04-26 20:46 12.00474 -61.78602 40 ft 14 kts
2026-04-26 20:46 12.00584 -61.78587 39 ft 15 kts 22°
2026-04-26 20:46 12.00660 -61.78582 39 ft 0 kts